Grand Forks, ND

3:05 PM CDT on April 30, 2017 (GMT -0500)
Grand Forks International

Weather History for KGFK - April, 2013

Change the Weather History Date:

Wednesday, April 3, 2013

  Actual Average Record
Temperature  
Mean Temperature 28 °F 35 °F  
Max Temperature 36 °F 46 °F 74 °F (1991)
Min Temperature 19 °F 25 °F -3 °F (1954)
Degree Days  
Heating Degree Days 37 30  
Month to date heating degree days 126 91  
Since 1 July heating degree days 8693 8476  
Cooling Degree Days 0 0  
Month to date cooling degree days 0 0  
Year to date cooling degree days 0 0  
Moisture  
Dew Point 23 °F    
Average Humidity 80    
Maximum Humidity 89    
Minimum Humidity 70    
Precipitation  
Precipitation 0.00 in 0.03 in 0.53 in (1999)
Month to date precipitation 0.00 0.09  
Year to date precipitation 1.77 2.12  
Snow  
Snow 0.00 in 0.10 in 4.50 in (1946)
Month to date snowfall 0.0 0.4  
Since 1 July snowfall 43.5 44.8  
Snow Depth 6.00 in    
Sea Level Pressure  
Sea Level Pressure 30.09 in    
Wind  
Wind Speed 16 mph (South)    
Max Wind Speed 31 mph    
Max Gust Speed 39 mph    
Visibility 10 miles    
Events      
T = Trace of Precipitation, MM = Missing Value Source: NWS Daily Summary

Daily Weather History Graph

Daily Weather History Graph

Search for Another Location

Airport or City:

Trip Planner

Search our weather history database for the weather conditions in past years. The results will help you decide how hot, cold, wet, or windy it might be!

Date:

Astronomy

Apr. 03, 2013 Rise Set
Actual Time 7:02 AM CDT 8:02 PM CDT
Civil Twilight 6:30 AM CDT 8:33 PM CDT
Nautical Twilight 5:53 AM CDT 9:11 PM CDT
Astronomical Twilight 5:13 AM CDT 9:52 PM CDT
Moon 3:12 AM CDT (4/3) 12:48 PM CDT (4/3)
Length of Visible Light 14h 02m
Length of Day
12h 59m
Last Quarter, 44% of the Moon is Illuminated
Apr 3
Last Quarter
Apr 10
New
Apr 18
First Quarter
Apr 25
Full
May 2
Last Quarter

Hourly Weather History & Observations

Time (CDT) Temp. Windchill Dew Point Humidity Pressure Visibility Wind Dir Wind Speed Gust Speed Precip Events Conditions
12:53 AM 19.9 °F 11.1 °F 16.0 °F 85% 30.33 in 10.0 mi South 6.9 mph - N/A   Clear
1:53 AM 19.9 °F 11.1 °F 16.0 °F 85% 30.31 in 10.0 mi South 6.9 mph - N/A   Clear
2:53 AM 21.9 °F 11.7 °F 17.1 °F 82% 30.28 in 10.0 mi SSE 9.2 mph - N/A   Clear
3:53 AM 19.9 °F 8.6 °F 16.0 °F 85% 30.26 in 10.0 mi SSE 10.4 mph - N/A   Clear
4:53 AM 19.0 °F 7.5 °F 15.1 °F 85% 30.25 in 10.0 mi SSE 10.4 mph - N/A   Clear
5:53 AM 19.0 °F 6.8 °F 14.0 °F 81% 30.23 in 10.0 mi South 11.5 mph - N/A   Clear
6:53 AM 19.0 °F 6.1 °F 14.0 °F 81% 30.21 in 10.0 mi South 12.7 mph - N/A   Scattered Clouds
7:53 AM 19.9 °F 7.3 °F 14.0 °F 78% 30.20 in 10.0 mi SSE 12.7 mph - N/A   Scattered Clouds
8:53 AM 21.9 °F 6.9 °F 16.0 °F 78% 30.18 in 10.0 mi South 19.6 mph 26.5 mph N/A   Scattered Clouds
9:53 AM 26.1 °F 10.4 °F 19.0 °F 75% 30.13 in 10.0 mi South 26.5 mph 34.5 mph N/A   Mostly Cloudy
10:53 AM 28.9 °F 14.5 °F 21.9 °F 75% 30.09 in 10.0 mi South 25.3 mph 36.8 mph N/A   Mostly Cloudy
11:53 AM 30.9 °F 16.7 °F 24.1 °F 76% 30.04 in 10.0 mi South 27.6 mph 35.7 mph N/A   Mostly Cloudy
12:53 PM 33.1 °F 20.1 °F 27.0 °F 78% 30.01 in 10.0 mi South 25.3 mph 32.2 mph N/A   Overcast
1:53 PM 33.1 °F 20.1 °F 28.0 °F 82% 30.00 in 10.0 mi South 25.3 mph 32.2 mph N/A   Mostly Cloudy
2:53 PM 34.0 °F 20.8 °F 28.9 °F 82% 29.95 in 10.0 mi South 27.6 mph 36.8 mph N/A   Mostly Cloudy
3:53 PM 35.1 °F 23.0 °F 30.0 °F 82% 29.90 in 10.0 mi South 24.2 mph 34.5 mph N/A   Mostly Cloudy
4:53 PM 36.0 °F 26.7 °F 30.9 °F 82% 29.96 in 10.0 mi SSW 15.0 mph 26.5 mph N/A   Overcast
5:53 PM 36.0 °F 27.5 °F 30.9 °F 82% 29.95 in 10.0 mi South 12.7 mph - N/A   Overcast
6:53 PM 35.1 °F 26.9 °F 32.0 °F 89% 29.95 in 8.0 mi South 11.5 mph - N/A   Mostly Cloudy
7:53 PM 35.1 °F 29.3 °F 32.0 °F 89% 29.96 in 8.0 mi SW 6.9 mph - N/A   Mostly Cloudy
8:53 PM 35.1 °F 29.3 °F 32.0 °F 89% 29.98 in 9.0 mi West 6.9 mph - N/A   Mostly Cloudy
9:53 PM 36.0 °F 29.0 °F 28.9 °F 76% 30.00 in 10.0 mi WNW 9.2 mph - N/A   Scattered Clouds
10:53 PM 35.1 °F 25.9 °F 26.1 °F 70% 30.01 in 10.0 mi NW 13.8 mph - N/A   Clear
11:53 PM 35.1 °F 26.4 °F 27.0 °F 72% 30.01 in 10.0 mi NW 12.7 mph - N/A   Clear